Temperature
15 15 15 15 15 15 15 16 16 16 16 16 17 17 17 17 17 17 17 17 18 18 18 18 18 18 18 18 18 18 18 18 18 18 18 18 18 18 18 18 18 18 17
15 15 15 15 15 15 15 15 16 16 16 16 16 17 17 17 17 17 17 17 18 18 18 18 18 18 18 18 18 18 18 18 18 18 18 18 18 18 18 18 18 17 17
15 15 15 15 15 15 15 15 15 15 16 16 16 16 17 17 17 17 17 17 17 18 18 18 18 18 18 18 18 18 18 18 18 18 18 18 18 18 18 18 18 17 17
15 14 14 14 14 15 15 15 15 15 15 16 16 16 16 17 17 17 17 17 17 17 18 18 18 18 18 18 18 18 18 18 18 18 18 18 18 18 18 18 17 17 17
14 14 14 14 14 14 14 14 15 15 15 15 16 16 16 17 17 17 17 17 17 17 18 18 17 18 18 18 18 18 18 18 18 18 18 18 18 18 18 18 17 17 17
14 14 14 14 14 14 14 14 15 15 15 15 15 16 16 16 17 17 17 17 17 17 17 17 17 17 18 18 18 18 18 18 18 18 18 18 18 18 18 18 17 17 17
13 14 13 14 14 14 14 14 14 14 15 15 15 15 16 16 16 17 17 17 17 17 17 17 17 17 18 18 18 18 18 18 18 18 18 18 18 18 18 18 18 17 17
13 13 13 13 13 14 14 14 14 14 14 15 15 15 15 16 16 17 17 17 17 17 17 17 17 17 17 17 18 18 18 18 18 18 18 18 18 18 18 18 18 17 17
13 13 13 13 13 13 14 14 14 14 14 14 15 15 15 16 16 16 16 17 17 17 17 17 17 17 17 17 17 17 17 17 18 18 18 18 18 18 17 17 17 17 17
13 13 13 13 13 13 13 13 13 14 14 14 14 15 15 15 16 16 16 16 16 16 17 17 17 17 17 17 17 17 17 17 17 17 17 17 18 17 17 17 17 17 17
13 13 13 13 13 13 13 13 13 13 13 14 14 14 15 15 15 16 15 16 16 16 16 16 17 17 17 17 17 17 17 17 17 17 17 17 17 17 17 17 17 17 17
14 13 13 13 13 13 13 13 13 13 13 13 14 14 14 14 15 15 15 15 16 16 16 16 16 16 16 16 16 16 17 17 17 17 17 17 17 17 17 17 17 17 17
14 14 13 13 13 13 13 13 13 13 13 13 13 13 14 14 14 15 15 15 15 15 16 16 16 16 16 16 16 16 16 16 17 17 17 17 17 17 17 17 17 17 17
14 14 13 13 13 13 13 13 13 13 13 13 13 13 13 13 14 14 14 14 15 15 16 16 15 15 15 15 16 16 16 16 16 16 17 17 17 17 17 17 17 17 17
14 14 13 13 13 13 13 12 12 13 13 13 13 13 13 13 13 13 14 14 14 14 15 15 15 15 15 15 15 15 15 16 16 16 16 16 17 17 17 17 17 17 17
14 14 14 14 14 13 13 13 13 13 13 13 13 13 13 13 13 13 13 13 14 14 14 15 15 15 15 15 14 15 15 15 15 16 16 16 16 16 16 16 17 17 17
14 14 14 14 14 14 13 13 13 13 13 13 13 13 13 13 13 13 13 13 13 14 14 14 14 14 14 14 14 14 14 15 15 15 15 15 16 16 16 16 16 16 16
15 14 14 14 14 14 13 13 13 13 13 13 13 13 13 13 13 13 13 13 13 13 13 13 14 14 14 14 14 14 14 14 14 15 15 15 15 15 16 16 16 16 16
15 15 15 14 14 14 14 13 13 13 13 13 13 13 13 13 13 13 13 13 13 13 13 13 13 13 13 13 13 14 14 14 14 14 14 14 15 15 15 15 16 16 16
15 15 15 15 14 14 14 14 14 13 13 13 13 13 13 13 13 13 13 12 12 12 13 13 13 13 13 13 13 13 13 13 14 14 14 14 14 14 15 15 15 15 16
15 15 15 15 14 14 14 14 14 13 13 13 13 13 13 13 13 13 13 13 12 12 12 12 12 12 13 13 13 13 13 13 13 13 14 14 14 14 14 15 15 15 15
15 15 15 15 14 14 14 14 14 14 14 13 13 13 13 13 13 13 13 13 12 12 12 12 12 12 12 12 12 12 12 12 13 13 13 14 14 14 14 14 14 15 15
15 15 15 15 14 14 14 14 14 14 14 14 13 13 13 13 13 13 13 12 12 12 12 12 12 12 12 12 12 12 12 12 12 13 13 13 14 14 14 14 14 14 14
15 15 15 15 14 14 14 14 14 14 14 14 13 13 13 13 13 13 12 12 12 12 12 12 12 12 12 12 12 12 12 12 13 13 12 13 13 13 13 13 13 13 14
15 15 15 15 14 14 14 14 14 14 14 14 14 13 13 13 13 13 13 12 12 12 12 12 12 12 12 12 12 12 12 12 12 12 12 12 12 12 13 13 13 13 13
15 15 15 14 14 14 14 13 13 13 13 13 13 13 13 13 13 13 13 12 12 12 12 12 12 12 12 12 12 11 11 11 11 11 12 11 11 11 12 12 12 13 13
Wind_Speed
3 3 3 0 1 1 1 2 3 4 5 5 5 5 4 4 3 2 5 11 11 9 8 7 7 7 7 8 8 8 8 8 8 7 8 9 10 10 10 10 11 11 11
3 3 3 3 2 1 1 2 2 3 3 3 4 4 3 3 3 4 4 8 10 10 10 9 8 8 7 8 8 8 8 9 9 9 9 10 10 11 11 11 12 11 11
3 3 4 3 3 3 2 1 2 1 2 3 3 4 2 2 3 4 3 5 8 10 11 10 9 8 8 9 9 8 9 9 9 10 10 10 11 11 11 12 12 11 11
8 3 4 4 3 3 2 1 1 1 2 1 2 2 2 1 3 4 3 4 6 7 10 12 11 9 9 10 10 10 10 10 10 10 11 11 12 11 12 12 12 11 12
9 5 4 3 4 3 3 3 1 1 1 1 2 2 2 2 3 4 3 2 4 7 8 12 12 11 10 10 11 11 11 11 10 11 11 12 12 12 12 12 12 12 12
7 5 4 5 4 4 3 3 3 2 1 2 2 1 2 2 3 3 3 2 1 4 7 9 10 10 11 11 11 11 12 12 12 12 12 12 13 13 13 13 13 13 12
7 4 5 4 4 3 4 4 2 3 1 1 1 1 1 2 2 2 2 1 2 2 4 7 9 9 9 12 12 13 13 13 12 12 13 13 13 13 13 14 13 13 13
6 7 6 5 4 3 4 4 3 2 2 1 0 1 0 0 1 2 2 2 1 0 1 4 6 8 8 10 12 14 14 13 14 13 13 13 14 14 14 14 14 14 14
4 5 6 6 5 4 3 4 4 3 2 2 2 1 1 1 1 1 1 1 1 1 1 0 1 4 7 8 11 14 13 13 13 13 13 14 14 15 15 15 15 15 15
3 4 5 6 5 4 5 5 5 3 2 2 2 2 1 1 1 0 1 0 1 1 1 0 0 1 4 6 9 12 12 12 11 12 13 14 14 15 15 16 16 16 16
3 2 3 4 4 4 5 6 5 4 3 2 2 2 2 2 1 1 0 1 1 0 0 0 1 1 2 5 7 9 12 11 10 10 11 12 13 15 15 16 16 17 17
2 3 1 3 4 4 5 5 4 4 3 3 2 2 2 2 2 2 1 0 0 0 0 1 1 1 3 5 6 9 10 10 10 9 9 10 11 13 14 16 17 17 18
2 3 3 3 4 4 4 4 4 3 3 3 3 3 3 3 2 2 2 1 1 0 0 0 1 1 3 5 6 7 8 10 9 9 9 10 10 12 13 15 16 17 18
2 3 2 2 3 4 4 4 3 4 4 4 5 3 2 3 3 3 2 2 2 1 0 1 1 2 3 5 4 2 6 9 8 8 9 10 10 12 13 14 16 17 18
1 2 0 1 2 2 2 3 3 4 4 4 4 4 3 2 3 3 3 2 1 1 1 0 1 2 2 4 2 2 3 8 8 9 10 10 11 12 12 13 14 16 17
2 0 2 1 2 2 2 2 2 2 2 1 1 1 2 2 3 2 2 2 1 1 1 1 1 1 2 1 1 1 1 6 9 10 11 11 11 12 13 14 15 15 16
2 3 1 2 1 2 2 3 2 3 4 3 2 3 3 3 3 2 2 1 1 1 1 2 2 1 1 1 1 2 3 4 7 10 11 11 12 13 13 14 15 16 16
1 0 2 0 1 2 3 3 1 1 1 3 4 3 2 2 2 2 2 2 1 1 1 2 3 2 2 1 1 2 3 4 4 7 11 11 12 13 13 14 15 16 17
1 2 3 2 1 2 2 2 2 1 0 0 1 3 3 2 1 1 1 2 2 2 1 1 2 2 2 2 1 3 4 2 4 4 8 10 11 13 14 15 16 16 17
3 3 1 1 2 2 1 0 1 0 1 1 2 1 0 3 4 4 2 2 2 2 1 1 2 2 2 2 1 2 3 3 3 4 4 5 8 11 13 15 16 17 18
3 3 2 2 1 1 1 3 3 3 2 2 1 2 3 5 4 3 2 4 4 3 2 1 2 2 2 2 1 1 3 4 4 2 2 3 3 4 6 12 15 17 17
3 2 3 2 1 1 5 5 1 3 4 4 2 1 4 5 5 3 2 1 0 1 2 2 2 2 3 2 1 2 2 3 3 3 3 5 4 5 5 7 12 14 16
4 3 3 2 2 2 6 6 5 2 4 5 4 2 1 3 6 4 5 6 5 7 6 3 3 4 4 2 2 3 3 3 4 4 3 5 4 5 5 8 11 12 14
5 5 5 4 3 4 7 8 7 5 5 6 6 5 3 3 3 2 1 3 5 6 7 6 5 4 2 1 1 2 3 4 5 5 3 4 4 4 5 5 10 11 12
4 4 4 5 4 4 7 9 7 4 5 7 6 4 3 3 5 4 1 2 4 4 5 7 8 7 7 7 4 2 3 3 4 4 2 2 3 4 5 5 5 6 7
3 3 3 4 4 3 4 7 6 3 4 5 4 2 3 4 6 5 2 2 3 4 4 3 4 7 7 7 8 6 4 3 3 3 2 2 3 3 4 4 3 4 6
Wind_Direction
338 331 311 280 278 254 225 224 236 216 211 209 220 232 248 269 277 246 169 164 165 170 179 183 188 186 182 181 181 180 177 176 177 175 171 165 162 158 158 154 152 148 145
331 330 325 339 324 290 262 244 244 234 218 200 216 229 227 262 290 263 200 175 172 177 181 185 186 186 183 180 180 180 179 179 177 174 169 165 162 160 159 156 155 154 152
348 4 356 349 329 327 327 289 281 265 245 204 205 226 229 231 266 270 225 186 181 186 186 187 185 185 184 180 178 177 177 176 174 172 169 167 166 165 163 163 162 161 158
4 14 8 345 337 345 334 299 253 272 266 224 201 224 217 225 261 272 252 205 184 182 188 190 187 185 180 181 179 178 178 176 175 176 172 171 171 171 169 170 168 165 162
2 17 349 347 354 351 344 329 357 287 274 254 219 216 215 213 247 262 261 231 192 175 178 186 188 187 183 182 181 181 180 180 180 181 178 176 175 176 174 173 172 170 168
5 8 349 11 2 357 348 341 347 331 276 228 246 216 217 208 235 257 271 296 244 185 166 172 180 192 195 189 186 184 184 184 186 185 184 182 181 182 180 177 176 176 175
6 5 4 359 1 360 353 347 351 335 336 343 46 355 255 211 219 244 236 261 270 212 164 170 179 182 189 198 194 190 189 188 188 189 188 186 186 186 185 185 184 184 185
12 4 11 359 2 5 13 359 6 5 344 339 80 104 126 279 312 260 244 230 235 175 196 189 180 174 180 180 195 196 195 192 190 192 192 192 192 193 192 192 193 193 193
29 9 358 354 359 22 13 9 25 21 348 339 29 72 105 214 281 295 269 242 134 197 209 219 178 180 174 171 182 194 194 193 195 196 196 198 198 199 199 200 201 200 200
62 31 356 352 2 22 19 16 32 9 14 5 1 10 40 97 123 301 317 300 112 173 207 183 100 91 154 153 160 172 185 189 194 200 203 204 205 205 206 207 208 208 206
108 72 2 342 0 23 27 23 21 22 20 33 13 358 11 18 353 105 140 318 345 256 189 197 98 84 91 123 139 163 178 186 193 201 206 209 212 213 214 214 215 214 213
123 98 29 353 14 30 27 16 10 27 31 24 21 22 28 37 10 28 33 35 72 336 45 78 82 106 88 103 126 151 170 184 194 204 210 214 216 218 221 222 221 221 220
87 77 42 14 27 16 16 18 1 23 30 30 40 30 22 26 23 26 32 13 13 330 106 184 172 114 102 111 120 149 179 189 196 205 212 219 221 221 225 227 227 227 226
86 94 65 30 38 16 14 22 360 18 26 25 35 32 29 26 24 31 34 27 359 317 226 179 98 100 85 102 112 171 194 193 200 212 219 223 227 229 230 232 233 233 232
91 76 68 193 124 79 29 10 21 25 17 36 26 14 27 29 35 29 23 32 53 13 345 67 56 75 77 99 127 257 184 188 208 223 228 230 231 234 237 238 238 239 238
105 123 310 298 150 154 132 68 21 22 5 72 151 32 24 26 38 25 3 359 12 44 340 349 17 88 64 50 143 326 235 214 221 226 228 230 233 236 239 241 241 240 240
227 171 164 335 40 66 90 100 46 24 358 353 7 76 63 48 19 360 7 354 350 20 355 325 358 16 47 14 4 326 291 257 241 232 228 229 233 236 239 242 242 240 239
325 90 132 208 100 95 80 79 42 21 1 353 358 29 58 77 37 1 3 352 3 24 34 350 335 4 6 329 335 312 293 288 279 239 227 229 235 240 243 243 242 241 241
225 257 175 188 139 113 134 172 175 233 207 214 16 24 14 52 24 33 341 344 0 18 39 357 328 345 323 319 342 303 294 293 298 280 236 235 240 245 247 247 245 244 243
187 264 278 176 131 118 171 138 111 247 276 217 171 161 38 40 41 23 3 7 7 4 352 335 315 314 303 306 334 309 315 318 303 300 287 268 254 252 253 252 248 246 245
204 203 250 273 149 167 117 64 16 333 319 303 248 174 137 117 96 67 32 11 9 354 338 327 308 315 306 326 328 326 317 311 302 298 321 311 302 272 263 260 255 250 246
234 212 220 240 216 180 138 134 123 322 317 303 286 214 155 159 167 181 209 231 267 325 332 332 311 306 304 312 326 331 318 332 312 326 350 310 302 286 267 264 255 245 240
224 231 234 245 234 182 171 177 187 240 288 296 298 293 242 148 163 195 219 230 243 241 231 243 282 290 305 338 353 339 326 306 278 287 317 288 281 278 271 276 265 248 240
213 216 221 223 224 221 199 198 202 222 253 268 269 256 228 183 169 158 190 231 242 230 224 223 232 256 278 322 322 294 290 291 282 275 250 264 281 282 291 289 281 265 252
210 208 203 207 215 227 212 204 194 224 241 250 251 238 209 167 142 132 120 299 302 298 243 221 230 250 263 266 248 272 285 287 293 292 270 250 286 299 291 286 285 289 280
193 202 217 207 203 204 201 194 195 238 259 264 256 220 191 160 152 148 158 270 301 315 339 330 280 272 262 261 246 214 226 257 285 298 309 340 312 332 315 301 322 324 303
Height
1502 1501 1501 1500 1500 1499 1499 1499 1499 1499 1500 1500 1501 1503 1504 1506 1508 1510 1511 1513 1515 1516 1517 1519 1520 1522 1523 1525 1526 1528 1531 1532 1535 1537 1539 1541 1543 1545 1547 1548 1550 1552 1553
1501 1500 1499 1499 1499 1498 1498 1498 1497 1498 1498 1499 1499 1500 1502 1504 1506 1508 1510 1511 1513 1514 1516 1517 1519 1520 1522 1524 1525 1527 1529 1532 1534 1536 1538 1540 1542 1544 1546 1548 1550 1552 1553
1501 1499 1499 1498 1497 1497 1496 1496 1496 1496 1497 1498 1498 1499 1500 1502 1503 1505 1508 1509 1511 1512 1514 1515 1517 1519 1520 1522 1524 1526 1528 1531 1533 1535 1537 1540 1542 1544 1546 1548 1550 1552 1553
1500 1499 1497 1497 1496 1495 1495 1495 1495 1495 1495 1496 1497 1498 1499 1500 1501 1503 1505 1507 1508 1510 1512 1514 1516 1517 1519 1521 1522 1525 1527 1530 1532 1534 1536 1539 1541 1543 1545 1547 1549 1551 1553
1499 1498 1497 1496 1495 1494 1494 1494 1494 1494 1494 1494 1495 1496 1497 1498 1500 1501 1503 1505 1506 1508 1510 1512 1514 1516 1518 1519 1522 1524 1526 1528 1531 1533 1535 1537 1540 1542 1544 1547 1549 1551 1552
1499 1498 1497 1495 1494 1493 1493 1493 1492 1493 1493 1493 1494 1495 1496 1497 1499 1500 1502 1503 1504 1506 1508 1510 1512 1515 1517 1519 1521 1523 1525 1527 1529 1532 1534 1536 1539 1541 1543 1545 1548 1550 1552
1499 1498 1496 1495 1494 1493 1492 1492 1492 1492 1492 1493 1494 1494 1495 1496 1497 1498 1500 1501 1502 1504 1506 1508 1510 1513 1515 1517 1519 1521 1523 1526 1528 1530 1533 1535 1537 1540 1542 1544 1546 1548 1550
1498 1497 1496 1495 1494 1494 1493 1492 1491 1491 1492 1493 1493 1494 1495 1497 1496 1497 1499 1500 1501 1503 1505 1507 1509 1511 1513 1515 1517 1520 1522 1524 1526 1528 1531 1533 1536 1538 1540 1542 1544 1547 1549
1498 1497 1496 1496 1495 1494 1493 1492 1491 1491 1492 1493 1493 1494 1495 1495 1496 1497 1498 1499 1500 1502 1504 1506 1508 1510 1511 1513 1516 1518 1520 1522 1525 1527 1529 1531 1533 1536 1538 1540 1543 1544 1547
1499 1498 1497 1496 1495 1495 1494 1493 1492 1491 1492 1492 1493 1494 1495 1495 1496 1497 1498 1499 1499 1501 1503 1504 1506 1508 1510 1511 1513 1516 1518 1520 1523 1525 1527 1529 1531 1533 1536 1538 1540 1542 1544
1499 1498 1497 1497 1496 1495 1494 1493 1493 1492 1492 1493 1493 1494 1494 1495 1496 1497 1497 1498 1499 1500 1502 1503 1505 1506 1507 1509 1511 1514 1516 1518 1520 1523 1525 1527 1529 1531 1533 1535 1537 1539 1541
1500 1498 1498 1497 1496 1496 1495 1494 1493 1493 1493 1493 1493 1494 1494 1495 1496 1496 1497 1498 1499 1500 1501 1502 1504 1505 1506 1508 1510 1512 1514 1516 1518 1520 1522 1524 1526 1528 1530 1532 1534 1536 1538
1500 1499 1498 1497 1497 1496 1495 1495 1494 1494 1494 1494 1494 1494 1494 1495 1496 1496 1497 1497 1498 1499 1500 1502 1503 1504 1505 1506 1508 1510 1512 1513 1515 1517 1519 1521 1523 1525 1526 1528 1530 1532 1534
1500 1499 1498 1497 1497 1496 1496 1495 1494 1494 1494 1494 1494 1494 1495 1495 1496 1496 1497 1497 1498 1499 1500 1501 1502 1503 1504 1505 1506 1508 1509 1510 1512 1514 1516 1517 1519 1521 1523 1524 1526 1528 1530
1500 1499 1498 1497 1497 1496 1495 1495 1495 1495 1495 1495 1494 1495 1495 1495 1495 1496 1497 1497 1499 1499 1500 1501 1502 1502 1503 1504 1505 1506 1507 1508 1509 1510 1512 1513 1515 1516 1518 1520 1521 1523 1525
1499 1498 1498 1498 1497 1497 1496 1495 1495 1495 1495 1495 1495 1495 1495 1495 1495 1496 1496 1497 1498 1499 1499 1500 1501 1501 1502 1503 1503 1503 1504 1505 1506 1507 1508 1509 1510 1512 1513 1515 1517 1518 1520
1498 1498 1498 1498 1498 1497 1497 1496 1496 1495 1495 1495 1496 1496 1496 1495 1495 1496 1496 1497 1497 1498 1498 1499 1500 1500 1501 1501 1501 1501 1502 1502 1502 1503 1504 1505 1506 1507 1508 1510 1511 1513 1514
1498 1498 1498 1498 1498 1497 1497 1496 1496 1496 1496 1496 1496 1496 1496 1496 1495 1495 1496 1496 1496 1497 1498 1498 1498 1499 1499 1499 1499 1499 1499 1500 1500 1500 1501 1501 1502 1502 1503 1504 1505 1507 1508
1497 1497 1498 1498 1497 1497 1497 1496 1496 1496 1496 1496 1496 1496 1496 1496 1495 1495 1495 1495 1496 1496 1496 1497 1497 1497 1497 1498 1497 1497 1497 1497 1497 1497 1497 1497 1498 1498 1498 1499 1500 1501 1502
1496 1496 1497 1497 1497 1496 1496 1496 1496 1496 1496 1496 1496 1496 1496 1495 1495 1495 1495 1495 1495 1495 1495 1495 1496 1496 1496 1496 1496 1495 1495 1495 1494 1494 1494 1494 1494 1494 1494 1494 1495 1495 1496
1495 1495 1495 1496 1496 1495 1495 1495 1495 1495 1495 1496 1496 1495 1495 1494 1494 1494 1494 1494 1494 1494 1494 1494 1494 1494 1495 1494 1494 1493 1493 1492 1491 1491 1490 1490 1490 1489 1489 1489 1489 1490 1490
1493 1493 1494 1494 1494 1494 1494 1494 1494 1494 1494 1494 1495 1494 1494 1493 1493 1493 1492 1492 1492 1492 1492 1493 1493 1493 1493 1493 1492 1491 1490 1489 1488 1489 1487 1487 1486 1485 1485 1485 1484 1485 1485
1490 1490 1491 1491 1491 1491 1492 1492 1492 1492 1492 1492 1492 1493 1493 1492 1492 1491 1491 1491 1491 1491 1491 1491 1491 1491 1491 1490 1489 1489 1488 1487 1486 1485 1484 1483 1483 1481 1481 1480 1480 1480 1480
1487 1487 1488 1488 1488 1488 1488 1489 1489 1489 1489 1490 1490 1490 1491 1491 1490 1490 1489 1489 1489 1489 1489 1489 1489 1488 1488 1487 1487 1486 1485 1484 1483 1483 1481 1479 1479 1478 1477 1476 1476 1475 1475
1484 1484 1484 1484 1484 1484 1485 1485 1486 1486 1486 1487 1487 1488 1488 1488 1488 1488 1488 1487 1487 1487 1487 1487 1486 1486 1486 1485 1484 1483 1482 1481 1479 1479 1479 1477 1476 1474 1473 1472 1472 1471 1470
1480 1481 1481 1481 1481 1481 1481 1481 1482 1482 1483 1483 1484 1485 1485 1485 1485 1485 1485 1485 1485 1485 1485 1484 1484 1483 1483 1482 1481 1481 1480 1479 1477 1476 1476 1475 1473 1472 1469 1468 1467 1467 1465